This demonstration page uses our WeatherBlox Daily Observations layout. Learn more.

Left ArrowRight Arrow

38.80484, -77.04692

Hourly Observations for March 12, 2022

Temp ( °F °C ) Dew Point ( °F °C ) Humidity (%) Winds ( mph kmh ) Pressure ( in mb ) Visibility ( mi km ) Precip ( " mm )
12:13 am 00:13 Cloudy 49 9.4 43 6.1 80 80 S 15 24 29.72 1006 10 16 0.00 0.00
12:21 am 00:21 Cloudy 49 9.4 43 6.1 80 80 S 14 22 29.71 1006 10 16 0.00 0.00
12:52 am 00:52 Cloudy 49 9.4 44 6.7 83 83 S 13 20 29.68 1005 10 16 0.00 0.00
1:29 am 01:29 Cloudy 49 9.4 44 6.7 83 83 S 10 17 29.64 1004 10 16 0.00 0.00
1:52 am 01:52 Cloudy 49 9.4 44 6.7 83 83 S 9 15 29.62 1003 10 16 0.00 0.00
2:52 am 02:52 Cloudy 49 9.4 44 6.7 83 83 S 7 11 29.56 1001 10 16 0.00 0.00
2:55 am 02:55 Cloudy 49 9.4 44 6.7 83 83 S 5 7 29.55 1001 10 16 0.00 0.00
3:52 am 03:52 Cloudy 49 9.4 45 7.2 86 86 Calm 29.52 1000 10 16 0.00 0.00
4:29 am 04:29 Cloudy with Drizzle 50 10 45 7.2 83 83 Calm 29.49 999 10 16 0.00 0.00
4:52 am 04:52 Cloudy with Drizzle 49 9.4 45 7.2 86 86 W 3 6 29.49 999 8 13 0.00 0.00
5:05 am 05:05 Cloudy with Light Rain 49 9.4 45 7.2 86 86 Calm 29.47 998 2 3 0.01 0.25
5:19 am 05:19 Cloudy with Light Rain 49 9.4 46 7.8 90 90 WNW 3 6 29.47 998 3 5 0.04 1.02
5:28 am 05:28 Cloudy with Light Rain 49 9.4 46 7.8 90 90 Calm 29.46 998 3 5 0.05 1.27
5:35 am 05:35 Cloudy with Light Rain 49 9.4 46 7.8 90 90 WSW 6 9 29.46 998 3 5 0.06 1.52
5:52 am 05:52 Cloudy with Rain 49 9.4 46 7.8 90 90 WSW 9 15 29.47 998 4 6 0.13 3.30
6:10 am 06:10 Cloudy with Light Rain 44 6.7 39 3.9 83 83 WNW 25 41 29.49 999 4 6 0.03 0.76
6:19 am 06:19 Cloudy with Rain 42 5.6 37 2.8 82 82 NW 26 43 29.49 999 6 10 0.05 1.27
6:28 am 06:28 Cloudy with Rain 42 5.6 36 2.2 79 79 NW 28 44 29.50 999 4 6 0.08 2.03
6:36 am 06:36 Cloudy with Rain 41 5 34 1.1 76 76 NW 29 46 29.51 999 4 6 0.10 2.54
6:52 am 06:52 Cloudy with Rain 40 4.4 34 1.1 79 79 NW 26 43 29.52 1000 4 6 0.16 4.06
7:52 am 07:52 Cloudy with Mist and Fog 36 2.2 32 0 86 86 NW 24 39 29.53 1000 4 6 0.10 2.54
7:56 am 07:56 Cloudy 36 2.2 31 -0.6 82 82 NNW 22 35 29.51 999 3 5 0.02 0.51
7:59 am 07:59 Cloudy 36 2.2 31 -0.6 82 82 NNW 26 43 29.50 999 3 5 0.03 0.76
8:13 am 08:13 Cloudy 35 1.7 30 -1.1 82 82 NNW 28 44 29.49 999 3 4 0.04 1.02
8:27 am 08:27 Cloudy with Mist and Fog 34 1.1 30 -1.1 85 85 N 26 43 29.48 998 2 3 0.06 1.52
8:35 am 08:35 Cloudy with Mist and Fog 34 1.1 31 -0.6 89 89 NNW 16 26 29.51 999 1 2 0.08 2.03
8:43 am 08:43 Cloudy with Mist and Fog 34 1.1 30 -1.1 85 85 NNW 21 33 29.50 999 2 2 0.10 2.54
8:52 am 08:52 Cloudy with Mist and Fog 34 1.1 31 -0.6 89 89 NW 15 24 29.52 1000 1 2 0.11 2.79
8:54 am 08:54 Windy with Snow Likely 34 1.1 31 -0.6 89 89 NW 20 31 29.53 1000 1 2 0.00 0.00
8:59 am 08:59 Windy with Snow Likely 34 1.1 30 -1.1 85 85 NNW 23 37 29.51 999 1 1 0.01 0.25
9:13 am 09:13 Cloudy with Snow 33 0.6 30 -1.1 89 89 NW 29 46 29.52 1000 1 1 0.02 0.51
9:26 am 09:26 Windy with Snow Likely 33 0.6 29 -1.7 85 85 NW 23 37 29.55 1001 1 1 0.03 0.76
9:29 am 09:29 Windy with Snow Likely 33 0.6 29 -1.7 85 85 NNW 25 41 29.52 1000 1 2 0.03 0.76
9:52 am 09:52 Windy with Snow Likely 33 0.6 29 -1.7 85 85 NW 21 33 29.53 1000 1 2 0.05 1.27
9:56 am 09:56 Windy with Snow Likely 33 0.6 29 -1.7 85 85 NW 23 37 29.53 1000 1 1 0.00 0.00
10:16 am 10:16 Cloudy with Snow 33 0.6 29 -1.7 85 85 NW 21 33 29.52 1000 1 1 0.01 0.25
10:43 am 10:43 Windy with Snow Likely 33 0.6 29 -1.7 85 85 NNW 20 31 29.51 999 1 2 0.02 0.51
10:52 am 10:52 Windy with Snow Likely 33 0.6 28 -2.2 82 82 NNW 23 37 29.50 999 1 2 0.02 0.51
10:54 am 10:54 Windy with Snow Likely 33 0.6 29 -1.7 85 85 NNW 24 39 29.51 999 1 2 0.00 0.00
11:13 am 11:13 Cloudy with Light Snow 33 0.6 29 -1.7 85 85 NW 17 28 29.53 1000 1 1 0.00 0.00
11:24 am 11:24 Windy with Snow Likely 32 0 28 -2.2 85 85 NW 24 39 29.51 999 2 2 0.01 0.25
11:27 am 11:27 Windy with Snow Likely 32 0 28 -2.2 85 85 NW 20 31 29.51 999 3 5 0.01 0.25
11:35 am 11:35 Windy with Snow Likely 33 0.6 27 -2.8 78 78 NW 22 35 29.52 1000 8 13 0.01 0.25
11:48 am 11:48 Cloudy 34 1 27 -3 75 75 NW 22 35 29.54 1000 10 16 0.01 0.25
11:52 am 11:52 Cloudy 33 0.6 26 -3.3 75 75 NNW 18 30 29.52 1000 10 16 0.01 0.25
12:05 pm 12:05 Windy with Snow Likely 32 0 25 -3.9 75 75 NNW 24 39 29.54 1000 5 8 0.00 0.00
12:10 pm 12:10 Windy with Snow Likely 33 0.6 26 -3.3 75 75 NW 21 33 29.54 1000 3 4 0.00 0.00
12:13 pm 12:13 Windy with Snow Likely 32 0 26 -3.3 79 79 NW 21 33 29.53 1000 2 3 0.00 0.00
12:21 pm 12:21 Cloudy with Light Snow 32 0 26 -3.3 79 79 NW 18 30 29.55 1001 2 3 0.00 0.00
12:26 pm 12:26 Windy with Snow Likely 33 0.6 25 -3.9 72 72 NW 23 37 29.54 1000 4 6 0.00 0.00
12:43 pm 12:43 Cloudy with Light Rain 33 0.6 25 -3.9 72 72 NNW 22 35 29.54 1000 10 16 0.00 0.00
12:52 pm 12:52 Cloudy 33 0.6 24 -4.4 70 70 NNW 23 37 29.56 1001 10 16 0.00 0.00
1:05 pm 13:05 Cloudy 33 0.6 24 -4.4 70 70 NNW 29 46 29.56 1001 8 13 0.00 0.00
1:11 pm 13:11 Windy with Snow Likely 32 0 24 -4.4 73 73 NW 29 46 29.57 1001 4 6 0.00 0.00
1:16 pm 13:16 Windy with Snow Likely 32 0 23 -5 69 69 NW 28 44 29.57 1001 3 4 0.00 0.00
1:23 pm 13:23 Windy with Snow Likely 32 0 23 -5 69 69 NW 22 35 29.59 1002 4 6 0.00 0.00
1:52 pm 13:52 Cloudy with Light Snow 31 -0.6 24 -4.4 76 76 NW 17 28 29.60 1002 2 3 0.00 0.00
1:55 pm 13:55 Windy with Snow Likely 30 -1.1 24 -4.4 79 79 NW 24 39 29.60 1002 1 2 0.00 0.00
1:58 pm 13:58 Windy with Snow Likely 30 -1.1 23 -5 75 75 NW 25 41 29.61 1003 1 1 0.00 0.00
2:11 pm 14:11 Windy with Snow Likely 29 -1.7 21 -6.1 72 72 NW 23 37 29.62 1003 1 2 0.00 0.00
2:16 pm 14:16 Windy with Snow Likely 29 -1.7 22 -5.6 75 75 NW 26 43 29.62 1003 2 3 0.00 0.00
2:18 pm 14:18 Windy with Snow Likely 29 -1.7 22 -5.6 75 75 NW 21 33 29.63 1004 2 3 0.00 0.00
2:52 pm 14:52 Cloudy with Light Snow 28 -2.2 22 -5.6 78 78 NW 13 20 29.65 1004 1 2 0.00 0.00
3:15 pm 15:15 Windy with Snow Likely 28 -2.2 20 -6.7 72 72 NW 20 31 29.67 1005 3 5 0.00 0.00
3:26 pm 15:26 Cloudy with Light Snow 28 -2.2 20 -6.7 72 72 NW 16 26 29.67 1005 7 11 0.00 0.00
3:52 pm 15:52 Cloudy 29 -1.7 17 -8.3 61 61 NW 16 26 29.67 1005 10 16 0.00 0.00
4:52 pm 16:52 Cloudy 30 -1.1 13 -10.6 49 49 NW 17 28 29.71 1006 10 16 0.00 0.00
5:52 pm 17:52 Partly Cloudy 29 -1.7 10 -12.2 45 45 NW 21 33 29.78 1009 10 16 0.00 0.00
6:52 pm 18:52 Partly Cloudy 27 -2.8 8 -13.3 45 45 WNW 21 33 29.85 1011 10 16 0.00 0.00
7:52 pm 19:52 Partly Cloudy 26 -3.3 8 -13.3 46 46 WNW 24 39 29.92 1013 10 16 0.00 0.00
8:52 pm 20:52 Partly Cloudy 25 -3.9 9 -12.8 50 50 W 13 20 29.98 1015 10 16 0.00 0.00
9:52 pm 21:52 Mostly Clear 25 -3.9 6 -14.4 44 44 W 16 26 30.03 1017 10 16 0.00 0.00
10:52 pm 22:52 Mostly Clear 25 -3.9 7 -13.9 46 46 W 20 31 30.06 1018 10 16 0.00 0.00
11:52 pm 23:52 Partly Cloudy 25 -3.9 9 -12.8 50 50 W 17 28 30.09 1019 10 16 0.00 0.00

Powered by AerisWeather